Weather History for Cullman, AL

Change the Weather History Date:

Sunday, October 28, 2012

  Actual Average (KHSV) Record (KHSV)
Temperature  
Mean Temperature 50 °F 59 °F  
Max Temperature 57 °F 71 °F 86 °F (1940)
Min Temperature 43 °F 47 °F 26 °F (1914)
Degree Days  
Heating Degree Days 15 7  
Month to date heating degree days 116  
Since 1 July heating degree days 129  
Cooling Degree Days 0 1  
Month to date cooling degree days 67  
Year to date cooling degree days 1937  
Moisture  
Dew Point 37 °F    
Average Humidity 65    
Maximum Humidity 92    
Minimum Humidity 40    
Precipitation  
Precipitation 0.00 in 0.13 in 1.24 in (1931)
Month to date precipitation 3.21  
Year to date precipitation 43.25  
Snow  
Snow 0.00 in - - ()
Month to date snowfall  
Since 1 July snowfall  
Since 1 September snowfall  
Snow Depth -    
Sea Level Pressure  
Sea Level Pressure 29.98 in    
Wind  
Wind Speed 9 mph (NNW)    
Max Wind Speed 15 mph    
Max Gust Speed 28 mph    
Visibility 10 miles    
Events      
T = Trace of Precipitation, MM = Missing Value Source: NWS Daily Summary

Daily Weather History Graph

Daily Weather History Graph

Search for Another Location

Airport:

Trip Planner

Search our weather history database for the weather conditions in past years. The results will help you decide how hot, cold, wet, or windy it might be!

Date:

Astronomy

Oct. 28, 2012 Rise Set
Actual Time 7:04 AM CDT 5:57 PM CDT
Civil Twilight 6:38 AM CDT 6:23 PM CDT
Nautical Twilight 6:08 AM CDT 6:52 PM CDT
Astronomical Twilight 5:39 AM CDT 7:22 PM CDT
Moon 5:14 PM CDT 5:58 AM CDT
Length of Visible Light 11h 45m
Length of Day
10h 53m
Waxing Gibbous, 99% of the Moon is Illuminated
Oct 28
Waxing Gibbous
Oct 29
Full
Nov 6
Last Quarter
Nov 13
New
Nov 20
First Quarter

Hourly Weather History & Observations

Time (CDT) Temp. Windchill Dew Point Humidity Pressure Visibility Wind Dir Wind Speed Gust Speed Precip Events Conditions
12:15 AM 48.7 °F - 43.0 °F 80% 29.96 in 10.0 mi NNW 6.9 mph 16.1 mph N/A   Overcast
12:35 AM 48.6 °F - 43.2 °F 82% 29.95 in 10.0 mi North 6.9 mph - N/A   Overcast
12:55 AM 48.2 °F - 43.5 °F 84% 29.95 in 10.0 mi North 11.5 mph 16.1 mph N/A   Overcast
1:15 AM 47.5 °F - 43.9 °F 87% 29.94 in 10.0 mi North 8.1 mph - N/A   Overcast
1:35 AM 47.1 °F - 44.1 °F 89% 29.94 in 7.0 mi North 9.2 mph 16.1 mph N/A   Overcast
1:55 AM 46.9 °F - 43.9 °F 89% 29.94 in 10.0 mi North 6.9 mph - N/A   Mostly Cloudy
2:15 AM 47.3 °F - 43.7 °F 87% 29.94 in 10.0 mi North 8.1 mph - N/A   Mostly Cloudy
2:35 AM 47.3 °F - 43.5 °F 87% 29.94 in 10.0 mi North 9.2 mph - N/A   Overcast
2:55 AM 47.3 °F - 43.3 °F 86% 29.94 in 10.0 mi North 5.8 mph - N/A   Mostly Cloudy
3:15 AM 46.9 °F - 43.5 °F 88% 29.94 in 5.0 mi NNW 9.2 mph 17.3 mph N/A   Overcast
3:35 AM 46.0 °F 41.4 °F 43.7 °F 92% 29.94 in 4.0 mi North 9.2 mph - N/A   Overcast
3:55 AM 45.9 °F 40.8 °F 43.7 °F 92% 29.94 in 7.0 mi North 10.4 mph - N/A   Overcast
4:15 AM 45.9 °F 41.2 °F 43.2 °F 90% 29.94 in 10.0 mi North 9.2 mph - N/A   Overcast
4:35 AM 46.0 °F 41.9 °F 42.4 °F 87% 29.94 in 10.0 mi North 8.1 mph - N/A   Mostly Cloudy
4:55 AM 46.4 °F 43.5 °F 41.5 °F 83% 29.94 in 10.0 mi North 5.8 mph - N/A   Overcast
5:15 AM 46.4 °F 44.3 °F 41.2 °F 82% 29.94 in 10.0 mi North 4.6 mph - N/A   Overcast
5:35 AM 46.4 °F 42.4 °F 40.6 °F 80% 29.94 in 10.0 mi North 8.1 mph - N/A   Overcast
5:55 AM 46.6 °F - 40.3 °F 79% 29.94 in 10.0 mi North 8.1 mph - N/A   Overcast
6:15 AM 46.8 °F - 40.3 °F 78% 29.94 in 10.0 mi North 8.1 mph - N/A   Overcast
6:35 AM 46.8 °F - 40.1 °F 78% 29.94 in 10.0 mi North 8.1 mph - N/A   Overcast
6:55 AM 46.8 °F - 40.1 °F 78% 29.95 in 10.0 mi North 9.2 mph - N/A   Overcast
7:15 AM 46.8 °F - 40.1 °F 78% 29.96 in 10.0 mi NNW 5.8 mph - N/A   Overcast
7:35 AM 46.8 °F - 39.6 °F 76% 29.97 in 10.0 mi NNW 6.9 mph - N/A   Overcast
7:55 AM 46.6 °F - 39.0 °F 75% 29.98 in 10.0 mi NW 10.4 mph - N/A   Overcast
8:15 AM 46.4 °F 42.9 °F 38.7 °F 74% 29.99 in 10.0 mi NNW 6.9 mph - N/A   Overcast
8:35 AM 46.0 °F 42.5 °F 38.1 °F 74% 29.99 in 10.0 mi NNW 6.9 mph - N/A   Mostly Cloudy
8:55 AM 46.0 °F 42.5 °F 37.8 °F 73% 29.99 in 10.0 mi North 6.9 mph - N/A   Overcast
9:35 AM 47.8 °F - 37.6 °F 68% 29.99 in 10.0 mi NNW 10.4 mph 20.7 mph N/A   Mostly Cloudy
9:55 AM 48.2 °F - 37.0 °F 65% 29.99 in 10.0 mi North 12.7 mph 20.7 mph N/A   Mostly Cloudy
10:15 AM 48.2 °F - 37.0 °F 65% 30.00 in 10.0 mi North 10.4 mph 18.4 mph N/A   Overcast
10:35 AM 48.6 °F - 36.9 °F 64% 29.99 in 10.0 mi North 12.7 mph 19.6 mph N/A   Overcast
10:55 AM 49.3 °F - 37.4 °F 64% 30.00 in 10.0 mi NNW 15.0 mph 23.0 mph N/A   Overcast
11:15 AM 50.4 °F - 37.6 °F 62% 29.99 in 10.0 mi NNW 9.2 mph 19.6 mph N/A   Overcast
11:35 AM 51.1 °F - 37.9 °F 61% 29.99 in 10.0 mi NW 11.5 mph 18.4 mph N/A   Overcast
11:55 AM 51.4 °F - 38.1 °F 60% 29.99 in 10.0 mi North 12.7 mph 21.9 mph N/A   Mostly Cloudy
12:35 PM 52.9 °F - 39.0 °F 59% 29.99 in 10.0 mi NNW 10.4 mph 25.3 mph N/A   Mostly Cloudy
12:55 PM 52.3 °F - 39.6 °F 62% 29.99 in 10.0 mi North 13.8 mph 27.6 mph N/A   Overcast
1:15 PM 52.5 °F - 39.2 °F 61% 29.99 in 10.0 mi North 12.7 mph 23.0 mph N/A   Mostly Cloudy
1:35 PM 53.2 °F - 39.0 °F 59% 29.99 in 10.0 mi North 11.5 mph 26.5 mph N/A   Overcast
1:55 PM 53.6 °F - 38.7 °F 57% 29.99 in 10.0 mi North 8.1 mph - N/A   Mostly Cloudy
2:15 PM 55.0 °F - 37.6 °F 52% 29.98 in 10.0 mi NNW 10.4 mph 21.9 mph N/A   Scattered Clouds
2:35 PM 55.9 °F - 36.3 °F 48% 29.97 in 10.0 mi North 12.7 mph 19.6 mph N/A   Scattered Clouds
2:55 PM 56.7 °F - 35.8 °F 46% 29.97 in 10.0 mi North 11.5 mph 19.6 mph N/A   Clear
3:15 PM 57.0 °F - 35.1 °F 44% 29.97 in 10.0 mi NW 9.2 mph 23.0 mph N/A   Clear
3:35 PM 57.0 °F - 34.0 °F 42% 29.98 in 10.0 mi NNW 12.7 mph 21.9 mph N/A   Clear
3:55 PM 57.0 °F - 33.1 °F 40% 29.98 in 10.0 mi North 10.4 mph 19.6 mph N/A   Clear
4:15 PM 56.7 °F - 32.4 °F 40% 29.98 in 10.0 mi NNW 10.4 mph 20.7 mph N/A   Clear
4:35 PM 56.3 °F - 32.4 °F 40% 29.98 in 10.0 mi NNW 13.8 mph 24.2 mph N/A   Clear
4:55 PM 55.8 °F - 31.5 °F 40% 29.98 in 10.0 mi NNW 11.5 mph 19.6 mph N/A   Clear
5:15 PM 55.0 °F - 31.8 °F 41% 29.99 in 10.0 mi NNW 11.5 mph 20.7 mph N/A   Clear
5:35 PM 53.8 °F - 31.6 °F 43% 29.99 in 10.0 mi NNW 9.2 mph 20.7 mph N/A   Clear
5:55 PM 52.3 °F - 31.6 °F 45% 30.00 in 10.0 mi North 8.1 mph 16.1 mph N/A   Clear
6:15 PM 51.1 °F - 31.6 °F 47% 30.00 in 10.0 mi North 5.8 mph - N/A   Clear
6:35 PM 49.8 °F - 31.8 °F 50% 30.01 in 10.0 mi NNW 5.8 mph - N/A   Clear
6:55 PM 48.9 °F - 32.0 °F 52% 30.01 in 10.0 mi North 4.6 mph - N/A   Clear
7:15 PM 48.2 °F - 32.2 °F 54% 30.02 in 10.0 mi North 4.6 mph - N/A   Clear
7:35 PM 47.7 °F - 32.2 °F 55% 30.03 in 10.0 mi North 3.5 mph - N/A   Clear
7:55 PM 46.9 °F - 32.0 °F 56% 30.03 in 10.0 mi North 6.9 mph - N/A   Clear
8:15 PM 47.1 °F - 31.6 °F 55% 30.03 in 10.0 mi North 9.2 mph - N/A   Clear
8:55 PM 47.3 °F - 30.9 °F 53% 30.05 in 10.0 mi North 6.9 mph 16.1 mph N/A   Clear
9:15 PM 46.9 °F - 31.1 °F 54% 30.05 in 10.0 mi North 5.8 mph - N/A   Clear
9:35 PM 46.2 °F 44.1 °F 31.3 °F 56% 30.05 in 10.0 mi North 4.6 mph - N/A   Clear
9:55 PM 45.7 °F 41.5 °F 31.6 °F 58% 30.06 in 10.0 mi NNW 8.1 mph - N/A   Clear
10:15 PM 45.5 °F 40.3 °F 32.0 °F 59% 30.06 in 10.0 mi NNW 10.4 mph 17.3 mph N/A   Clear
10:55 PM 45.0 °F 39.3 °F 32.0 °F 60% 30.06 in 10.0 mi North 11.5 mph 16.1 mph N/A   Clear
11:15 PM 44.4 °F 40.0 °F 32.0 °F 62% 30.06 in 10.0 mi North 8.1 mph - N/A   Clear
11:35 PM 43.9 °F 38.8 °F 32.0 °F 63% 30.06 in 10.0 mi North 9.2 mph 16.1 mph N/A   Clear
11:55 PM 43.5 °F 39.4 °F 32.0 °F 64% 30.06 in 10.0 mi North 6.9 mph - N/A   Clear